Regional Weather Roundup
Issued by NWS

Home | Current Version | Previous Version | Graphics & Text | Print | Product List | Glossary On
Versions: 1 2 3 4 5 6 7 8 9 10 11 12 13 14 15 16 17 18 19 20 21 22 23 24 25 26 27 28
000
ASUS45 KCYS 210710
RWRWY

WYOMING REGIONAL WEATHER ROUNDUP
NATIONAL WEATHER SERVICE CHEYENNE WY
1200 AM MST SAT JAN 21 2017

NOTE:  "FAIR" INDICATES FEW OR NO CLOUDS BELOW 12,000 FEET
WITH NO SIGNIFICANT WEATHER AND/OR OBSTRUCTIONS TO VISIBILITY.

WYZ001-210800-
YELLOWSTONE NATIONAL PARK

CITY           SKY/WX    TMP DP  RH WIND       PRES   REMARKS
LK YELLOWSTONE   N/A      0  -3  87 CALM      29.36S
W YELLOWSTONE  NOT AVBL

$$
WYZ002>013-054>058-071-098>099-210800-
NORTHERN WYOMING

CITY           SKY/WX    TMP DP  RH WIND       PRES   REMARKS
JACKSON        CLOUDY    18  14  86 CALM      29.37R
CODY           FAIR      21  11  65 VRB3      29.36F
GREYBULL       FOG       13  11  92 CALM      29.39S VSB 1/4
WORLAND        FOG        8   8 100 CALM      29.38S VSB 1/4
SHERIDAN       FAIR      22  18  85 VRB5      29.35F WCI  16
BUFFALO        MOCLDY    29  23  78 SW6       29.35F WCI  23
GILLETTE       FAIR      27  24  89 SW3       29.36F
HULETT         LGT SNOW  32  32 100 MISG      29.37F
NEWCASTLE      CLOUDY    32  32 100 N5        29.38F WCI  27

$$
WYZ014>020-022>026-101>103-210800-
CENTRAL WYOMING

CITY           SKY/WX    TMP DP  RH WIND       PRES   REMARKS
BIG PINEY      LGT SNOW   6   3  87 NE8       29.39F FOG     WCI  -7
PINEDALE       CLOUDY     3   1  92 NW7       29.40F WCI  -9
DUBOIS         NOT AVBL
LANDER         CLOUDY    16  14  92 CALM      29.36F
RIVERTON       FAIR     N/A N/A N/A NW8       29.38S
CASPER         FAIR      23  17  78 SW21      29.38S WCI   8
DOUGLAS        FAIR      21  17  84 NW3       29.39S

$$
WYZ021-027>030-104>119-210800-
SOUTHERN WYOMING

CITY           SKY/WX    TMP DP  RH WIND       PRES   REMARKS
EVANSTON       MOCLDY    15  10  80 E12       29.30F WCI   2
ROCK SPRINGS   FAIR      21  15  78 S10       29.36F WCI  10
RAWLINS        FAIR      12   7  80 CALM      29.41F
LARAMIE        FAIR      10   6  84 S7        29.40S WCI  -1
CHEYENNE       FAIR      24  14  65 SW8       29.41S WCI  15
TORRINGTON     FAIR      26  21  81 W5        29.39F WCI  20

$$




USA.gov is the U.S. government's official web portal to all federal, state and local government web resources and services.